Regional Weather Roundup
Issued by NWS

Home | Current Version | Previous Version | Graphics & Text | Print | Product List | Glossary On
Versions: 1 2 3 4 5 6 7 8 9 10 11 12 13 14 15 16 17 18 19 20 21 22 23 24 25 26 27 28 29 30 31 32 33 34 35 36 37 38 39 40 41 42 43 44 45 46 47 48 49 50
000
ASUS43 KIND 261009
RWRIN

WEATHER ROUNDUP FOR INDIANA
NATIONAL WEATHER SERVICE INDIANAPOLIS IN
500 AM EST MON JAN 26 2015

NOTE: "FAIR" INDICATES FEW OR NO CLOUDS BELOW 12,000 FEET WITH NO
SIGNIFICANT WEATHER AND/OR OBSTRUCTIONS TO VISIBILITY.

* - STATION DOES NOT REPORT WEATHER SUCH AS PRECIPITATION OR FOG.

+ - STATION NOT QUALITY CONTROLLED BY THE NATIONAL WEATHER SERVICE.
    USE DATA WITH CAUTION...ESPECIALLY DEWPOINT AND RELATIVE
    HUMIDITY OBSERVATIONS.

INZ001>003-010>013-019-020-261100-
NORTHWEST INDIANA

CITY           SKY/WX    TMP DP  RH WIND       PRES   REMARKS
KNOX *+        CLEAR     13   3  65 CALM      29.93F
LA PORTE +     CLEAR     14  10  82 CALM      29.95R
MICHIGAN CITY+ CLEAR     14   9  79 CALM      29.97R
MONTICELLO +   PTCLDY    18  13  80 NE7       29.94S WCI   9
RENSSELAER +   PTCLDY    19  18  93 NW3       29.96R
VALPARAISO     CLEAR     13   9  84 N3        29.96S

$$

LMZ046-743>745-261100-
SOUTHERN LAKE MICHIGAN

STATION/POSITION TIME  TEMP WIND        PRES
                       AIR  DIR/SP/G
                 (UTC) (F)  (DEG/KT/KT) (MB)
MICHIGAN CITY    1000   17   50/  5/  6   N/A

$$

INZ004-005-014>016-021>024-261100-
NORTH CENTRAL INDIANA

CITY           SKY/WX    TMP DP  RH WIND       PRES   REMARKS
GOSHEN         CLEAR     12   6  77 N3        29.92F
LOGANSPORT +   CLEAR     16  10  79 N8        29.94S WCI   5
PERU/GRISSOM   CLEAR     16  10  76 N6        29.91F WCI   7
ROCHESTER +    CLEAR     18  10  73 NE3       29.93F
SOUTH BEND     CLEAR     13   7  77 E3        29.94F
WARSAW +       CLEAR     12   9  85 NE3       29.92F

$$

INZ006>009-017-018-025>027-261100-
NORTHEAST INDIANA

CITY           SKY/WX    TMP DP  RH WIND       PRES   REMARKS
ANGOLA *+      CLEAR      7   3  85 CALM      29.90F
AUBURN +       CLEAR     12   5  73 N6        29.92F WCI   3
FORT WAYNE     PTCLDY    15   7  70 N8        29.91F WCI   4
HUNTINGTON +   CLEAR     14   4  64 N7        29.91F WCI   4

$$

INZ028-029-035-036-043>045-051>053-261100-
WEST CENTRAL INDIANA

CITY           SKY/WX    TMP DP  RH WIND       PRES   REMARKS
GREENCASTLE +  CLOUDY    25  16  68 N9        29.92F WCI  15
LAFAYETTE      MOCLDY    20  16  84 N6        29.94F WCI  12
TERRE HAUTE    CLOUDY    27  21  78 N12       29.94F WCI  17

$$

INZ030>032-037>040-046>048-054>057-064-065-261100-
CENTRAL INDIANA

CITY           SKY/WX    TMP DP  RH WIND       PRES   REMARKS
CP ATTERBURY + CLOUDY    23  19  86 N15       29.91R WCI  10
GREENWOOD *+   CLOUDY    23  14  68 N10       29.90S WCI  12
INDIANAPOLIS   CLOUDY    20  14  77 N14       29.90S WCI   7
-EAGLE CREEK   CLOUDY    21  15  78 N12       29.90S WCI   9
KOKOMO *+      CLEAR     16   9  73 NE6       29.92S WCI   7
MARION +       CLEAR     18  11  73 N5        29.91F WCI  11
MT COMFORT *+  CLOUDY    21  10  63 N13G20    29.89S WCI   9
SHELBYVILLE    CLOUDY    22  15  75 N15       29.88R WCI   9
ZIONSVILLE +   CLOUDY    22  14  69 N10       29.91S WCI  12

$$

INZ033-034-041-042-049-050-058-059-261100-
EAST CENTRAL INDIANA

CITY           SKY/WX    TMP DP  RH WIND       PRES   REMARKS
MUNCIE         CLOUDY    18  12  77 N14       29.88F WCI   4

$$

INZ060-061-067>069-081>083-085>088-261100-
SOUTHWEST INDIANA

CITY           SKY/WX    TMP DP  RH WIND       PRES   REMARKS
EVANSVILLE     CLOUDY    31  25  78 N13G21    29.95R WCI  21
HUNTINGBURG *+ CLOUDY    27  19  74 N15G23    29.92R WCI  15
WASHINGTON +   CLOUDY    28  21  76 N12       29.93S WCI  17

$$

INZ062-063-066-070>080-084-089>092-261100-
SOUTH CENTRAL AND SOUTHEAST INDIANA

CITY           SKY/WX    TMP DP  RH WIND       PRES   REMARKS
BLOOMINGTON    CLOUDY    24  19  81 N12       29.90R WCI  13

$$




USA.gov is the U.S. government's official web portal to all federal, state and local government web resources and services.